�N����,����,�~����,�C��,���x,�C��,����,���ϕ���,�ő�u�ԕ���,�ő厞����,���˗�,�I�_���x,�n�����x,�ő啗���N��,DTYPE
"21/05/05","00:10",0.0,15.1,70.1,1012.1,286.4,1.1,1.9,331.3,0.00,9.7,130.0,"00:09:12",1
"21/05/05","00:20",0.0,15.1,70.2,1011.9,310.4,1.2,2.1,315.0,0.00,9.8,130.0,"00:12:32",1
"21/05/05","00:30",0.0,15.3,70.5,1011.4,3.9,0.6,1.4,343.5,0.00,10.0,130.0,"00:20:16",1
"21/05/05","00:40",0.0,15.2,71.4,1012.1,265.3,1.1,2.2,260.4,0.00,10.1,130.0,"00:38:56",1
"21/05/05","00:50",0.0,15.1,71.5,1011.4,329.6,1.0,2.1,265.0,0.00,10.0,130.0,"00:40:24",1
"21/05/05","01:00",0.0,15.2,71.4,1011.6,322.0,1.3,1.9,332.2,0.00,10.1,130.0,"00:50:56",1
"21/05/05","01:10",0.0,15.2,71.5,1011.2,315.4,1.0,1.7,322.2,0.00,10.1,130.0,"01:06:24",1
"21/05/05","01:20",0.0,15.0,72.3,1011.2,318.3,1.3,2.0,321.7,0.00,10.1,130.0,"01:12:32",1
"21/05/05","01:30",0.0,14.8,73.0,1010.9,317.7,1.1,1.7,321.3,0.00,10.1,130.0,"01:20:08",1
"21/05/05","01:40",0.0,14.7,73.6,1010.9,287.3,1.1,2.0,326.6,0.00,10.1,130.0,"01:35:12",1
"21/05/05","01:50",0.0,14.8,74.0,1010.4,327.0,1.1,1.7,315.2,0.00,10.3,130.0,"01:46:48",1
"21/05/05","02:00",0.0,14.7,75.0,1010.7,299.0,1.3,2.1,302.4,0.00,10.4,130.0,"01:51:20",1
"21/05/05","02:10",0.0,14.5,76.0,1010.9,314.2,1.1,1.6,344.4,0.00,10.4,130.0,"02:00:02",1
"21/05/05","02:20",0.0,14.6,76.3,1010.7,328.2,0.8,2.5,335.7,0.00,10.5,130.0,"02:11:28",1
"21/05/05","02:30",0.0,14.5,76.9,1010.7,304.7,1.3,1.9,315.2,0.00,10.5,130.0,"02:22:48",1
"21/05/05","02:40",0.0,14.5,77.4,1010.7,296.2,0.7,1.3,319.5,0.00,10.6,130.0,"02:30:08",1
"21/05/05","02:50",0.0,14.5,77.5,1010.7,310.8,1.2,1.9,316.5,0.00,10.7,130.0,"02:40:40",1
"21/05/05","03:00",0.0,14.5,77.8,1010.4,321.9,1.3,2.0,322.8,0.00,10.7,130.0,"02:54:16",1
"21/05/05","03:10",0.0,14.3,78.2,1010.9,290.0,0.5,1.1,311.8,0.00,10.6,130.0,"03:05:52",1
"21/05/05","03:20",0.0,14.4,78.7,1010.7,337.7,0.6,1.1,323.9,0.00,10.8,130.0,"03:15:36",1
"21/05/05","03:30",0.0,14.5,78.9,1010.7,318.3,1.2,2.0,324.5,0.00,10.9,130.0,"03:27:04",1
"21/05/05","03:40",0.0,14.2,79.7,1010.7,298.6,1.1,1.7,297.3,0.00,10.8,130.0,"03:39:28",1
"21/05/05","03:50",0.0,14.2,80.3,1010.4,298.3,1.1,1.4,307.5,0.00,10.9,130.0,"03:46:00",1
"21/05/05","04:00",0.0,14.3,80.6,1010.7,309.4,1.2,1.9,311.7,0.00,11.1,130.0,"03:57:28",1
"21/05/05","04:10",0.0,14.2,80.9,1010.7,298.6,1.2,1.9,338.5,0.00,11.0,130.0,"04:08:24",1
"21/05/05","04:20",0.0,14.3,81.4,1010.7,310.3,1.3,2.4,300.5,0.00,11.2,130.0,"04:17:28",1
"21/05/05","04:30",0.0,14.3,81.9,1010.7,307.8,0.8,1.6,324.0,0.00,11.3,130.0,"04:28:16",1
"21/05/05","04:40",0.0,14.2,82.4,1010.4,288.4,1.0,2.0,294.8,0.00,11.3,130.0,"04:36:24",1
"21/05/05","04:50",0.0,14.1,83.2,1010.2,310.0,1.1,3.6,337.1,0.00,11.3,130.0,"04:40:08",1
"21/05/05","05:00",0.2,14.1,84.0,1009.7,315.6,1.7,3.1,335.2,0.00,11.5,130.0,"04:59:44",1
"21/05/05","05:10",0.0,14.0,84.9,1009.7,307.5,1.8,2.9,322.2,0.00,11.5,130.0,"05:01:12",1
"21/05/05","05:20",0.0,13.9,85.7,1009.7,311.3,1.5,2.1,308.9,0.00,11.6,130.0,"05:15:04",1
"21/05/05","05:30",0.0,14.0,86.5,1010.2,321.1,1.5,2.2,335.5,0.00,11.8,130.0,"05:29:36",1
"21/05/05","05:40",0.0,14.1,87.1,1010.2,327.1,1.7,2.7,339.7,0.00,12.0,130.0,"05:32:16",1
"21/05/05","05:50",0.0,14.1,87.6,1010.2,289.4,1.2,1.9,311.8,0.00,12.1,130.0,"05:48:08",1
"21/05/05","06:00",0.0,14.0,88.0,1010.4,321.1,1.2,2.7,336.6,0.00,12.1,130.0,"05:53:20",1
"21/05/05","06:10",0.0,14.1,88.5,1010.7,319.1,1.5,2.2,333.0,0.00,12.3,130.0,"06:02:56",1
"21/05/05","06:20",0.0,14.2,88.8,1010.4,297.0,1.1,1.6,336.2,0.00,12.4,130.0,"06:10:56",1
"21/05/05","06:30",0.0,14.3,89.2,1010.4,315.3,1.3,1.9,323.8,0.00,12.6,130.0,"06:23:14",1
"21/05/05","06:40",0.0,14.3,89.5,1010.9,277.8,1.1,1.7,327.9,0.00,12.6,130.0,"06:34:24",1
"21/05/05","06:50",0.0,14.2,89.8,1011.2,310.3,1.1,2.0,327.9,0.00,12.6,130.0,"06:47:04",1
"21/05/05","07:00",0.0,14.4,90.0,1011.2,323.6,1.3,2.1,336.4,0.00,12.8,130.0,"06:51:12",1
"21/05/05","07:10",0.0,14.4,90.2,1011.2,319.1,1.1,1.6,340.7,0.00,12.9,130.0,"07:01:20",1
"21/05/05","07:20",0.0,14.4,90.4,1010.9,300.2,0.8,1.4,318.1,0.00,12.9,130.0,"07:14:48",1
"21/05/05","07:30",0.0,14.4,90.6,1011.2,292.3,1.1,1.8,339.9,0.00,12.9,130.0,"07:29:36",1
"21/05/05","07:40",0.2,14.2,90.8,1010.9,311.9,1.3,2.5,322.6,0.00,12.8,130.0,"07:32:40",1
"21/05/05","07:50",0.2,14.2,91.0,1011.2,306.4,1.5,2.9,340.0,0.00,12.8,130.0,"07:49:04",1
"21/05/05","08:00",0.2,14.2,91.3,1011.4,318.1,2.0,3.5,329.1,0.00,12.8,130.0,"07:50:48",1
"21/05/05","08:10",0.4,14.2,91.5,1010.9,269.6,1.3,2.4,223.2,0.01,12.9,130.0,"08:05:12",1
"21/05/05","08:20",0.0,14.3,91.7,1010.9,282.7,1.0,1.8,299.7,0.01,13.0,130.0,"08:10:48",1
"21/05/05","08:30",0.2,14.3,91.9,1011.2,313.1,1.3,2.2,336.4,0.01,13.0,130.0,"08:21:52",1
"21/05/05","08:40",0.2,14.4,92.0,1011.4,297.5,1.2,2.0,314.1,0.01,13.2,130.0,"08:31:04",1
"21/05/05","08:50",0.4,14.4,92.2,1011.6,323.1,1.3,2.8,323.0,0.01,13.2,130.0,"08:48:32",1
"21/05/05","09:00",0.2,14.6,92.4,1011.6,305.4,1.3,2.0,327.5,0.02,13.4,130.0,"08:57:20",1
"21/05/05","09:10",0.2,14.6,92.5,1011.6,289.2,1.0,1.6,323.9,0.02,13.4,130.0,"09:02:48",1
"21/05/05","09:20",0.2,14.6,92.7,1011.6,310.0,1.1,1.8,299.3,0.02,13.5,130.0,"09:19:12",1
"21/05/05","09:30",0.2,14.7,92.8,1011.9,301.0,1.3,2.1,323.1,0.03,13.6,130.0,"09:26:00",1
"21/05/05","09:40",0.2,15.0,92.9,1011.6,305.7,0.8,1.2,315.5,0.04,13.9,130.0,"09:31:28",1
"21/05/05","09:50",0.2,15.1,93.0,1011.9,278.4,0.8,1.3,259.1,0.04,14.0,130.0,"09:47:00",1
"21/05/05","10:00",0.6,15.2,93.0,1011.9,288.6,1.0,1.7,257.8,0.04,14.1,130.0,"09:58:00",1
"21/05/05","10:10",0.8,15.2,93.2,1011.6,301.9,1.1,1.9,325.3,0.04,14.1,130.0,"10:06:10",1
"21/05/05","10:20",1.0,15.2,93.2,1011.4,291.1,1.0,1.7,324.4,0.06,14.1,130.0,"10:19:34",1
"21/05/05","10:30",1.0,15.1,93.3,1011.6,301.6,1.1,1.6,348.0,0.04,14.1,130.0,"10:25:00",1
"21/05/05","10:40",0.6,15.0,93.5,1011.6,289.5,1.0,1.8,297.4,0.04,14.0,130.0,"10:37:54",1
"21/05/05","10:50",0.6,15.0,93.7,1011.4,285.8,1.0,2.2,304.1,0.06,14.0,130.0,"10:45:08",1
"21/05/05","11:00",0.6,15.2,93.7,1010.9,251.6,0.7,1.2,219.7,0.07,14.2,130.0,"10:55:46",1
"21/05/05","11:10",0.6,15.2,93.7,1011.2,315.1,1.6,2.5,325.8,0.04,14.2,130.0,"11:03:40",1
"21/05/05","11:20",0.2,15.2,93.8,1010.9,265.7,1.0,1.9,315.2,0.04,14.2,130.0,"11:10:24",1
"21/05/05","11:30",0.0,15.4,93.9,1010.9,240.9,0.8,1.8,245.5,0.07,14.5,130.0,"11:28:56",1
"21/05/05","11:40",0.4,15.4,94.0,1010.9,268.4,0.7,1.8,264.5,0.04,14.5,130.0,"11:30:48",1
"21/05/05","11:50",0.4,15.3,94.0,1011.2,268.7,1.2,2.6,208.6,0.01,14.4,130.0,"11:48:02",1
"21/05/05","12:00",0.6,15.4,94.0,1010.9,251.4,1.0,2.2,232.1,0.01,14.5,130.0,"11:50:16",1
"21/05/05","12:10",0.4,15.3,94.2,1010.7,286.8,0.8,1.2,301.1,0.02,14.4,130.0,"12:04:48",1
"21/05/05","12:20",0.2,15.4,94.2,1010.7,302.9,1.1,2.0,328.4,0.04,14.5,130.0,"12:17:36",1
"21/05/05","12:30",0.2,15.5,94.3,1010.4,310.9,1.0,1.6,328.1,0.04,14.6,130.0,"12:24:32",1
"21/05/05","12:40",0.2,15.5,94.4,1010.2,306.1,1.1,1.8,333.7,0.03,14.6,130.0,"12:37:20",1
"21/05/05","12:50",0.2,15.7,94.4,1010.0,316.7,1.3,2.4,332.6,0.03,14.8,130.0,"12:47:52",1
"21/05/05","13:00",0.0,15.9,94.4,1010.2,270.2,1.0,1.3,244.8,0.03,15.0,130.0,"12:51:44",1
"21/05/05","13:10",0.0,16.0,94.5,1010.0,292.7,1.2,2.2,299.5,0.06,15.2,130.0,"13:09:28",1
"21/05/05","13:20",0.2,16.1,94.6,1010.2,291.4,1.2,2.0,326.1,0.06,15.3,130.0,"13:16:40",1
"21/05/05","13:30",0.0,16.2,94.6,1010.0,310.0,1.1,2.2,325.1,0.07,15.4,130.0,"13:21:44",1
"21/05/05","13:40",0.2,16.4,94.7,1009.5,268.5,0.8,1.4,238.1,0.09,15.6,130.0,"13:37:52",1
"21/05/05","13:50",0.0,16.5,94.6,1009.5,279.9,1.1,2.2,263.1,0.07,15.7,130.0,"13:48:40",1
"21/05/05","14:00",0.0,16.5,94.7,1009.3,299.4,1.1,1.7,267.3,0.06,15.7,130.0,"13:58:08",1
"21/05/05","14:10",0.0,16.5,94.7,1009.3,267.8,1.0,1.7,262.4,0.07,15.7,130.0,"14:08:08",1
"21/05/05","14:20",0.0,16.6,94.7,1009.5,281.7,1.1,2.4,303.2,0.07,15.8,130.0,"14:19:12",1
"21/05/05","14:30",0.0,16.6,94.7,1009.3,274.0,1.1,2.2,239.7,0.07,15.8,130.0,"14:28:16",1
"21/05/05","14:40",0.2,16.8,94.7,1009.3,292.6,0.8,1.3,340.6,0.07,16.0,130.0,"14:35:04",1
"21/05/05","14:50",0.0,16.7,94.8,1009.0,288.8,1.1,1.9,304.7,0.05,15.9,130.0,"14:40:56",1
"21/05/05","15:00",0.0,16.7,94.8,1009.0,293.1,0.8,1.4,289.2,0.03,15.9,130.0,"14:59:52",1
"21/05/05","15:10",0.2,16.8,94.7,1009.0,292.7,0.8,1.4,304.6,0.02,16.0,130.0,"15:00:24",1
"21/05/05","15:20",0.2,16.7,94.8,1008.8,288.4,1.1,1.8,338.2,0.01,15.9,130.0,"15:18:00",1
"21/05/05","15:30",0.2,16.7,94.8,1008.8,299.2,0.8,1.7,235.4,0.01,15.9,130.0,"15:20:02",1
"21/05/05","15:40",0.0,16.8,94.9,1008.6,298.5,1.0,1.7,258.7,0.03,16.0,130.0,"15:30:48",1
"21/05/05","15:50",0.0,16.8,94.8,1008.6,267.0,0.8,1.6,268.4,0.02,16.0,130.0,"15:45:28",1
"21/05/05","16:00",0.0,16.7,94.9,1008.3,303.3,0.6,1.3,284.9,0.02,15.9,130.0,"15:50:32",1
"21/05/05","16:10",0.0,16.7,94.9,1008.6,321.5,0.8,1.9,341.0,0.01,15.9,130.0,"16:03:20",1
"21/05/05","16:20",0.0,16.8,95.0,1008.8,305.9,1.1,1.6,309.8,0.01,16.0,130.0,"16:11:20",1
"21/05/05","16:30",0.0,16.9,95.0,1008.8,323.6,1.3,1.7,321.7,0.01,16.1,130.0,"16:22:40",1
"21/05/05","16:40",0.0,16.9,95.0,1009.0,287.2,1.1,1.8,328.4,0.00,16.1,130.0,"16:39:12",1
"21/05/05","16:50",0.0,16.7,95.1,1008.8,278.3,0.8,2.0,332.3,0.00,16.0,130.0,"16:40:08",1
"21/05/05","17:00",0.2,16.6,95.2,1008.8,305.8,0.8,1.3,318.2,0.00,15.9,130.0,"16:57:36",1
"21/05/05","17:10",0.0,16.6,95.3,1008.8,312.8,1.2,1.8,331.1,0.00,15.9,130.0,"17:04:24",1
"21/05/05","17:20",0.0,16.6,95.3,1009.0,295.8,0.8,1.3,325.2,0.00,15.9,130.0,"17:16:24",1
"21/05/05","17:30",0.0,16.5,95.3,1008.8,297.0,0.8,1.4,292.1,0.00,15.8,130.0,"17:22:48",1
"21/05/05","17:40",0.2,16.4,95.4,1009.3,302.1,1.0,1.4,336.5,0.00,15.7,130.0,"17:32:40",1
"21/05/05","17:50",0.0,16.5,95.5,1009.0,307.3,1.1,1.4,319.9,0.00,15.8,130.0,"17:44:16",1
"21/05/05","18:00",0.2,16.6,95.6,1009.7,296.3,1.0,1.4,309.3,0.02,15.9,130.0,"17:59:12",1
"21/05/05","18:10",0.4,16.5,95.6,1009.3,312.7,1.0,1.6,318.6,0.00,15.8,130.0,"18:09:20",1
"21/05/05","18:20",0.0,16.3,95.6,1009.5,295.9,1.1,1.9,307.6,0.00,15.6,130.0,"18:11:52",1
"21/05/05","18:30",0.2,16.2,95.7,1009.5,285.4,0.8,1.6,314.9,0.00,15.6,130.0,"18:21:20",1
"21/05/05","18:40",0.2,16.2,95.8,1009.5,302.9,1.1,1.7,320.0,0.00,15.6,130.0,"18:35:44",1
"21/05/05","18:50",0.2,16.1,95.8,1009.5,293.1,0.8,1.3,300.0,0.00,15.5,130.0,"18:45:04",1
"21/05/05","19:00",0.0,16.0,95.8,1009.7,291.7,0.6,0.8,311.7,0.00,15.4,130.0,"18:53:28",1
"21/05/05","19:10",0.2,16.0,95.9,1010.0,223.2,0.1,0.6,271.1,0.00,15.4,130.0,"19:00:48",1
"21/05/05","19:20",0.0,15.9,96.0,1010.0,242.1,0.5,1.2,242.5,0.00,15.3,130.0,"19:18:32",1
"21/05/05","19:30",0.2,16.0,96.0,1010.0,299.6,1.1,1.7,334.5,0.00,15.4,130.0,"19:27:06",1
"21/05/05","19:40",0.0,16.0,96.0,1010.2,324.2,1.5,2.1,338.9,0.00,15.4,130.0,"19:32:16",1
"21/05/05","19:50",0.0,15.9,96.1,1010.2,285.1,0.6,1.2,291.3,0.00,15.3,130.0,"19:49:36",1
"21/05/05","20:00",0.2,15.8,96.1,1010.2,308.0,0.8,1.2,311.5,0.00,15.2,130.0,"19:53:04",1
"21/05/05","20:10",0.2,15.8,96.2,1010.4,301.2,0.8,1.2,308.1,0.00,15.2,130.0,"20:05:28",1
"21/05/05","20:20",0.2,15.8,96.2,1010.4,289.7,0.8,1.1,251.3,0.00,15.2,130.0,"20:15:30",1
"21/05/05","20:30",0.4,15.7,96.2,1010.7,284.1,0.7,1.2,304.4,0.00,15.1,130.0,"20:21:12",1
"21/05/05","20:40",0.2,15.7,96.3,1010.4,293.8,0.8,1.4,321.6,0.00,15.2,130.0,"20:38:16",1
"21/05/05","20:50",0.2,15.7,96.4,1011.2,322.3,1.1,1.6,320.2,0.00,15.2,130.0,"20:40:08",1
"21/05/05","21:00",0.8,15.7,96.4,1010.9,327.6,1.2,1.9,322.6,0.00,15.2,130.0,"20:51:28",1
"21/05/05","21:10",0.8,15.7,96.4,1011.2,294.3,0.7,1.1,303.1,0.00,15.2,130.0,"21:03:38",1
"21/05/05","21:20",0.6,15.7,96.5,1011.2,296.4,0.8,1.3,305.0,0.00,15.2,130.0,"21:12:56",1
"21/05/05","21:30",0.0,15.7,96.5,1011.2,312.1,1.0,1.4,321.9,0.00,15.2,130.0,"21:25:10",1
"21/05/05","21:40",0.0,15.7,96.5,1011.6,302.4,0.8,1.4,339.9,0.00,15.2,130.0,"21:30:50",1
"21/05/05","21:50",0.0,15.7,96.6,1011.4,318.9,1.3,1.9,331.6,0.00,15.2,130.0,"21:49:52",1
"21/05/05","22:00",0.0,15.7,96.7,1010.9,321.1,1.8,4.0,339.6,0.00,15.2,130.0,"21:55:48",1
"21/05/05","22:10",0.2,15.7,96.7,1011.4,296.1,1.2,2.0,317.2,0.00,15.2,130.0,"22:06:32",1
"21/05/05","22:20",0.0,15.7,96.7,1011.4,289.1,1.2,1.8,325.6,0.00,15.2,130.0,"22:18:40",1
"21/05/05","22:30",0.0,15.7,96.8,1011.4,312.1,1.7,3.1,314.3,0.00,15.2,130.0,"22:28:16",1
"21/05/05","22:40",0.0,15.7,96.9,1011.4,325.7,1.6,2.5,319.9,0.00,15.2,130.0,"22:30:16",1
"21/05/05","22:50",0.0,15.7,96.9,1011.2,309.9,1.1,2.2,317.9,0.00,15.2,130.0,"22:43:28",1
"21/05/05","23:00",0.0,15.5,96.9,1011.4,296.2,0.2,1.0,305.4,0.00,15.1,130.0,"22:58:08",1
"21/05/05","23:10",0.0,15.4,97.0,1011.4,347.6,0.2,0.8,320.9,0.00,15.0,130.0,"23:00:48",1
"21/05/05","23:20",0.0,15.1,97.0,1011.9,300.7,1.7,3.3,311.5,0.00,14.7,130.0,"23:17:28",1
"21/05/05","23:30",0.0,14.8,97.2,1011.4,314.6,2.0,3.4,318.0,0.00,14.4,130.0,"23:28:32",1
"21/05/05","23:40",0.0,14.5,97.3,1011.6,336.2,2.2,3.5,322.3,0.00,14.1,130.0,"23:30:40",1
"21/05/05","23:50",0.0,14.3,97.4,1011.9,332.1,1.8,3.1,341.9,0.00,13.9,130.0,"23:45:04",1
"21/05/05","24:00",0.0,14.1,97.5,1011.4,337.6,1.3,2.5,324.6,0.00,13.8,130.0,"23:52:10",1
